Hourly Data Report for October 09, 2016

All times are specified in Local Standard Time (LST). Add 1 hour to adjust for Daylight Saving Time where and when it is observed.

WINNIPEG A CS
MANITOBA

49°55'00.000" N
97°14'58.000" W
238.70 m
502S001
71849
XWG

Download Data

Hourly Data (October 2016)
Hourly Data Report for October 9, 2016
Temp Definition
°C
Dew Point Temp Definition
°C
Rel Hum Definition
%
Wind Dir Definition
10's deg

Wind Spd Definition
km/h
Visibility Definition
km
Stn Press Definition
kPa
Hmdx Definition


Wind Chill Definition


Weather Definition


TIME
00:00 2.4 1.8 96 24 4   99.84     LegendNANA
01:00 3.0 2.4 96 23 2   99.84     LegendNANA
02:00 3.2 2.7 96 17 6   99.81     LegendNANA
03:00 3.1 2.5 96 18 7   99.80     LegendNANA
04:00 1.9 1.6 98 18 10   99.79     LegendNANA
05:00 0.9 0.6 99 17 11   99.73     LegendNANA
06:00 1.5 1.2 98 16 11   99.67     LegendNANA
07:00 2.3 1.2 92 16 11   99.64     LegendNANA
08:00 3.7 1.8 88 16 21   99.53     LegendNANA
09:00 4.4 1.9 83 16 23   99.50     LegendNANA
10:00 5.1 2.1 81 16 29   99.35     LegendNANA
11:00 6.1 1.9 74 16 31   99.29     LegendNANA
12:00 7.7 1.7 66 16 36   99.11     LegendNANA
13:00 7.9 1.4 64 15 38   98.90     LegendNANA
14:00 8.5 2.6 67 14 37   98.63     LegendNANA
15:00 10.3 3.4 62 15 32   98.45     LegendNANA
16:00 10.7 3.9 63 18 21   98.44     LegendNANA
17:00 11.1 4.7 65 16 29   98.32     LegendNANA
18:00 11.2 5.1 66 17 27   98.29     LegendNANA
19:00 11.7 5.3 65 17 35   98.16     LegendNANA
20:00 11.9 5.5 65 17 39   98.08     LegendNANA
21:00 11.8 5.8 67 18 35   98.08     LegendNANA
22:00 11.5 6.1 69 18 33   98.05     LegendNANA
23:00 11.4 6.4 71 18 32   98.01     LegendNANA

Notes on Data Quality.

Legend

  • E = Estimated
  • M = Missing
  • NA = Not Available
  • ‡ = Partner data that is not subject to review by the National Climate Archives
Date modified: